| time (UTC) | temp F | wind direction | speed MPH | gust MPH | rain 1hr in | rain 24hr in | rain mn in | humidity % | barometer mb |
| 20260904181601 | 95 | 36 | 1.0 | 3.0 | 0.00 | 0.00 | 0.00 | 49 | 1016.2 |
| 20260904181101 | 95 | 349 | 2.0 | 3.0 | 0.00 | 0.00 | 0.00 | 50 | 1016.3 |
| 20260904180555 | 95 | 349 | 1.0 | 3.0 | 0.00 | 0.00 | 0.00 | 50 | 1016.5 |
| 20260904180050 | 96 | 359 | 2.0 | 4.0 | 0.00 | 0.00 | 0.00 | 49 | 1016.6 |
| 20260904175544 | 96 | 336 | 3.0 | 4.0 | 0.00 | 0.00 | 0.00 | 50 | 1016.5 |
| 20260904175042 | 95 | 106 | 2.0 | 3.0 | 0.00 | 0.00 | 0.00 | 50 | 1016.8 |
| 20260904174537 | 95 | 101 | 3.0 | 7.0 | 0.00 | 0.00 | 0.00 | 49 | 1016.5 |
| 20260904174035 | 94 | 42 | 1.0 | 5.0 | 0.00 | 0.00 | 0.00 | 51 | 1016.7 |
| 20260904173534 | 95 | 283 | 1.0 | 3.0 | 0.00 | 0.00 | 0.00 | 50 | 1017.0 |
| 20260904173030 | 95 | 44 | 1.0 | 4.0 | 0.00 | 0.00 | 0.00 | 49 | 1017.0 |
| 20260904172526 | 95 | 85 | 3.0 | 4.0 | 0.00 | 0.00 | 0.00 | 50 | 1017.0 |
| 20260904172025 | 95 | 180 | 2.0 | 7.0 | 0.00 | 0.00 | 0.00 | 48 | 1017.0 |
| 20260904171520 | 95 | 124 | 2.0 | 6.0 | 0.00 | 0.00 | 0.00 | 51 | 1017.2 |
| 20260904171016 | 94 | 85 | 3.0 | 6.0 | 0.00 | 0.00 | 0.00 | 50 | 1017.2 |
| 20260904170511 | 94 | 165 | 2.0 | 4.0 | 0.00 | 0.00 | 0.00 | 51 | 1017.2 |
| 20260904170007 | 94 | 169 | 3.0 | 5.0 | 0.00 | 0.00 | 0.00 | 50 | 1017.2 |
| 20260904165506 | 94 | 268 | 3.0 | 8.0 | 0.00 | 0.00 | 0.00 | 51 | 1017.1 |
| 20260904165005 | 93 | 141 | 4.0 | 10.0 | 0.00 | 0.00 | 0.00 | 52 | 1017.3 |
| 20260904164500 | 94 | 87 | 1.0 | 7.0 | 0.00 | 0.00 | 0.00 | 51 | 1017.5 |
| 20260904163956 | 94 | 134 | 2.0 | 7.0 | 0.00 | 0.00 | 0.00 | 52 | 1017.4 |
| 20260904163456 | 93 | 155 | 4.0 | 8.0 | 0.00 | 0.00 | 0.00 | 52 | 1017.6 |
| 20260904162956 | 93 | 145 | 3.0 | 7.0 | 0.00 | 0.00 | 0.00 | 51 | 1017.4 |
| 20260904162451 | 93 | 103 | 0.0 | 7.0 | 0.00 | 0.00 | 0.00 | 54 | 1017.7 |
| 20260904161946 | 93 | 84 | 4.0 | 7.0 | 0.00 | 0.00 | 0.00 | 51 | 1017.5 |
| 20260904161442 | 93 | 143 | 3.0 | 7.0 | 0.00 | 0.00 | 0.00 | 53 | 1017.7 |
| 20260904160937 | 93 | 112 | 4.0 | 8.0 | 0.00 | 0.00 | 0.00 | 52 | 1017.7 |
| 20260904160432 | 92 | 137 | 5.0 | 9.0 | 0.00 | 0.00 | 0.00 | 53 | 1017.7 |
| 20260904155927 | 92 | 126 | 1.0 | 5.0 | 0.00 | 0.00 | 0.00 | 55 | 1017.8 |
| 20260904155422 | 92 | 139 | 0.0 | 3.0 | 0.00 | 0.00 | 0.00 | 56 | 1017.8 |
| 20260904154920 | 92 | 318 | 2.0 | 6.0 | 0.00 | 0.00 | 0.00 | 56 | 1017.9 |
| 20260904154415 | 91 | 322 | 4.0 | 5.0 | 0.00 | 0.00 | 0.00 | 58 | 1017.7 |
| 20260904153910 | 91 | 141 | 3.0 | 5.0 | 0.00 | 0.00 | 0.00 | 57 | 1017.8 |
| 20260904153405 | 91 | 171 | 4.0 | 6.0 | 0.00 | 0.00 | 0.00 | 58 | 1017.9 |
| 20260904152901 | 91 | 124 | 2.0 | 7.0 | 0.00 | 0.00 | 0.00 | 58 | 1017.8 |
| 20260904152356 | 90 | 108 | 5.0 | 6.0 | 0.00 | 0.00 | 0.00 | 60 | 1017.6 |
| 20260904151855 | 90 | 132 | 4.0 | 7.0 | 0.00 | 0.00 | 0.00 | 59 | 1017.8 |
| 20260904151350 | 90 | 190 | 3.0 | 3.0 | 0.00 | 0.00 | 0.00 | 60 | 1017.7 |
| 20260904150846 | 89 | 186 | 3.0 | 4.0 | 0.00 | 0.00 | 0.00 | 60 | 1017.6 |
| 20260904150341 | 89 | 62 | 4.0 | 5.0 | 0.00 | 0.00 | 0.00 | 61 | 1017.4 |
| 20260904145838 | 89 | 122 | 0.0 | 5.0 | 0.00 | 0.00 | 0.00 | 62 | 1017.5 |
| 20260904145335 | 89 | 313 | 0.0 | 2.0 | 0.00 | 0.00 | 0.00 | 63 | 1017.4 |
| 20260904144830 | 88 | 181 | 2.0 | 4.0 | 0.00 | 0.00 | 0.00 | 63 | 1017.5 |
| 20260904144326 | 88 | 190 | 3.0 | 5.0 | 0.00 | 0.00 | 0.00 | 63 | 1017.6 |
| 20260904143821 | 87 | 126 | 4.0 | 7.0 | 0.00 | 0.00 | 0.00 | 66 | 1017.7 |
| 20260904143318 | 87 | 112 | 1.0 | 3.0 | 0.00 | 0.00 | 0.00 | 67 | 1017.5 |
| 20260904142814 | 86 | 137 | 0.0 | 4.0 | 0.00 | 0.00 | 0.00 | 67 | 1017.5 |
| 20260904142310 | 86 | 187 | 1.0 | 7.0 | 0.00 | 0.00 | 0.00 | 67 | 1017.6 |
| 20260904141804 | 86 | 173 | 1.0 | 6.0 | 0.00 | 0.00 | 0.00 | 67 | 1017.7 |
| 20260904141259 | 85 | 180 | 2.0 | 5.0 | 0.00 | 0.00 | 0.00 | 68 | 1017.6 |
| 20260904140755 | 85 | 120 | 3.0 | 3.0 | 0.00 | 0.00 | 0.00 | 69 | 1017.6 |
| 20260904140250 | 85 | 99 | 3.0 | 3.0 | 0.00 | 0.00 | 0.00 | 71 | 1017.6 |
| 20260904135749 | 84 | 82 | 2.0 | 2.0 | 0.00 | 0.00 | 0.00 | 72 | 1017.4 |
| 20260904135244 | 84 | 81 | 2.0 | 4.0 | 0.00 | 0.00 | 0.00 | 72 | 1017.5 |
| 20260904134741 | 84 | 150 | 2.0 | 4.0 | 0.00 | 0.00 | 0.00 | 73 | 1017.4 |
| 20260904134240 | 83 | 124 | 2.0 | 4.0 | 0.00 | 0.00 | 0.00 | 74 | 1017.4 |
| 20260904133735 | 83 | 50 | 0.0 | 2.0 | 0.00 | 0.00 | 0.00 | 74 | 1017.2 |
| 20260904133231 | 82 | 81 | 1.0 | 2.0 | 0.00 | 0.00 | 0.00 | 76 | 1017.5 |
| 20260904132730 | 82 | 182 | 2.0 | 4.0 | 0.00 | 0.00 | 0.00 | 76 | 1017.3 |
| 20260904132226 | 81 | 133 | 2.0 | 3.0 | 0.00 | 0.00 | 0.00 | 77 | 1017.3 |
| 20260904131725 | 81 | 114 | 3.0 | 4.0 | 0.00 | 0.00 | 0.00 | 79 | 1017.5 |
| 20260904131221 | 80 | 75 | 0.0 | 2.0 | 0.00 | 0.00 | 0.00 | 81 | 1017.5 |
| 20260904130715 | 80 | 246 | 0.0 | 1.0 | 0.00 | 0.00 | 0.00 | 81 | 1017.3 |
| 20260904130214 | 80 | 118 | 2.0 | 4.0 | 0.00 | 0.00 | 0.00 | 82 | 1017.3 |
| 20260904125710 | 80 | 15 | 0.0 | 2.0 | 0.00 | 0.00 | 0.00 | 82 | 1017.2 |
| 20260904125206 | 79 | 55 | 0.0 | 2.0 | 0.00 | 0.00 | 0.00 | 83 | 1017.1 |
| 20260904124701 | 79 | 125 | 3.0 | 3.0 | 0.00 | 0.00 | 0.00 | 85 | 1017.2 |
| 20260904124156 | 78 | 173 | 2.0 | 4.0 | 0.00 | 0.00 | 0.00 | 85 | 1017.1 |
| 20260904123656 | 77 | 125 | 2.0 | 3.0 | 0.00 | 0.00 | 0.00 | 87 | 1017.0 |
| 20260904123152 | 77 | 157 | 0.0 | 3.0 | 0.00 | 0.00 | 0.00 | 89 | 1017.1 |
| 20260904122646 | 76 | 165 | 0.0 | 2.0 | 0.00 | 0.00 | 0.00 | 90 | 1016.9 |
| 20260904122142 | 75 | 113 | 0.0 | 1.0 | 0.00 | 0.00 | 0.00 | 89 | 1016.9 |
| 20260904121637 | 75 | 343 | 0.0 | 0.0 | 0.00 | 0.00 | 0.00 | 89 | 1016.8 |
| 20260904121132 | 75 | 115 | 0.0 | 2.0 | 0.00 | 0.00 | 0.00 | 89 | 1017.0 |
| 20260904120628 | 75 | 146 | 1.0 | 2.0 | 0.00 | 0.00 | 0.00 | 89 | 1016.9 |
| 20260904120125 | 75 | 299 | 0.0 | 1.0 | 0.00 | 0.00 | 0.00 | 89 | 1016.7 |
| 20260904115625 | 75 | 7 | 0.0 | 2.0 | 0.00 | 0.00 | 0.00 | 89 | 1016.6 |
| 20260904115119 | 75 | 129 | 0.0 | 2.0 | 0.00 | 0.00 | 0.00 | 89 | 1016.8 |
| 20260904114614 | 75 | 230 | 0.0 | 1.0 | 0.00 | 0.00 | 0.00 | 89 | 1016.6 |
| 20260904114108 | 75 | 15 | 0.0 | 1.0 | 0.00 | 0.00 | 0.00 | 89 | 1016.4 |
| 20260904113603 | 75 | 34 | 0.0 | 2.0 | 0.00 | 0.00 | 0.00 | 89 | 1016.5 |
| 20260904113102 | 75 | 50 | 0.0 | 0.0 | 0.00 | 0.00 | 0.00 | 89 | 1016.5 |
| 20260904112557 | 75 | 154 | 0.0 | 0.0 | 0.00 | 0.00 | 0.00 | 89 | 1016.4 |
| 20260904112054 | 75 | 154 | 0.0 | 2.0 | 0.00 | 0.00 | 0.00 | 89 | 1016.2 |
| 20260904111549 | 75 | 32 | 0.0 | 1.0 | 0.00 | 0.00 | 0.00 | 89 | 1016.4 |
| 20260904111044 | 75 | 33 | 0.0 | 2.0 | 0.00 | 0.00 | 0.00 | 89 | 1016.4 |
| 20260904110538 | 74 | 8 | 0.0 | 1.0 | 0.00 | 0.00 | 0.00 | 89 | 1016.4 |
| 20260904110034 | 74 | 117 | 0.0 | 0.0 | 0.00 | 0.00 | 0.00 | 88 | 1016.2 |
| 20260904105527 | 74 | 109 | 0.0 | 2.0 | 0.00 | 0.00 | 0.00 | 88 | 1016.4 |
| 20260904105023 | 75 | 176 | 1.0 | 2.0 | 0.00 | 0.00 | 0.00 | 88 | 1016.3 |
| 20260904104519 | 75 | 129 | 0.0 | 0.0 | 0.00 | 0.00 | 0.00 | 87 | 1016.3 |
| 20260904104014 | 75 | 117 | 0.0 | 1.0 | 0.00 | 0.00 | 0.00 | 87 | 1016.1 |
| 20260904103510 | 75 | 50 | 0.0 | 0.0 | 0.00 | 0.00 | 0.00 | 87 | 1016.2 |
| 20260904103006 | 75 | 50 | 0.0 | 0.0 | 0.00 | 0.00 | 0.00 | 87 | 1016.1 |
| 20260904102501 | 75 | 6 | 0.0 | 0.0 | 0.00 | 0.00 | 0.00 | 87 | 1016.0 |
| 20260904101956 | 75 | 352 | 0.0 | 0.0 | 0.00 | 0.00 | 0.00 | 87 | 1016.2 |
| 20260904101453 | 76 | 351 | 0.0 | 2.0 | 0.00 | 0.00 | 0.00 | 87 | 1016.1 |
| 20260904100948 | 76 | 9 | 0.0 | 2.0 | 0.00 | 0.00 | 0.00 | 87 | 1016.0 |
| 20260904100444 | 76 | 5 | 0.0 | 1.0 | 0.00 | 0.00 | 0.00 | 87 | 1016.0 |
| 20260904095943 | 76 | 351 | 0.0 | 1.0 | 0.00 | 0.00 | 0.00 | 87 | 1016.2 |
| 20260904095439 | 76 | 333 | 0.0 | 2.0 | 0.00 | 0.00 | 0.00 | 87 | 1015.9 |
| 20260904094933 | 76 | 300 | 0.0 | 2.0 | 0.00 | 0.00 | 0.00 | 86 | 1016.0 |
| 20260904094428 | 76 | 297 | 0.0 | 1.0 | 0.00 | 0.00 | 0.00 | 86 | 1016.0 |
| 20260904093925 | 76 | 15 | 0.0 | 0.0 | 0.00 | 0.00 | 0.00 | 86 | 1015.9 |
| 20260904093420 | 76 | 50 | 0.0 | 1.0 | 0.00 | 0.00 | 0.00 | 86 | 1016.0 |
| 20260904092915 | 76 | 55 | 0.0 | 1.0 | 0.00 | 0.00 | 0.00 | 86 | 1015.9 |
| 20260904092412 | 76 | 117 | 0.0 | 1.0 | 0.00 | 0.00 | 0.00 | 86 | 1015.9 |
| 20260904091907 | 76 | 37 | 0.0 | 1.0 | 0.00 | 0.00 | 0.00 | 85 | 1015.8 |
| 20260904091403 | 76 | 104 | 0.0 | 2.0 | 0.00 | 0.00 | 0.00 | 85 | 1015.7 |
| 20260904090857 | 77 | 136 | 1.0 | 2.0 | 0.00 | 0.00 | 0.00 | 85 | 1015.6 |
| 20260904090353 | 77 | 326 | 0.0 | 0.0 | 0.00 | 0.00 | 0.00 | 85 | 1015.8 |
| 20260904085848 | 77 | 289 | 0.0 | 2.0 | 0.00 | 0.00 | 0.00 | 85 | 1015.9 |
| 20260904085344 | 77 | 279 | 0.0 | 2.0 | 0.00 | 0.00 | 0.00 | 85 | 1015.7 |
| 20260904084843 | 77 | 333 | 0.0 | 2.0 | 0.00 | 0.00 | 0.00 | 85 | 1015.8 |
| 20260904084340 | 77 | 301 | 0.0 | 2.0 | 0.00 | 0.00 | 0.00 | 85 | 1015.8 |
| 20260904083835 | 77 | 315 | 0.0 | 1.0 | 0.00 | 0.00 | 0.00 | 85 | 1015.6 |
| 20260904083332 | 77 | 358 | 1.0 | 2.0 | 0.00 | 0.00 | 0.00 | 85 | 1015.6 |
| 20260904082827 | 77 | 29 | 0.0 | 1.0 | 0.00 | 0.00 | 0.00 | 85 | 1015.7 |
| 20260904082321 | 77 | 75 | 0.0 | 1.0 | 0.00 | 0.00 | 0.00 | 85 | 1015.7 |
| 20260904081817 | 78 | 141 | 0.0 | 1.0 | 0.00 | 0.00 | 0.00 | 85 | 1015.8 |
| 20260904081312 | 78 | 38 | 0.0 | 2.0 | 0.00 | 0.00 | 0.00 | 85 | 1015.8 |
| 20260904080808 | 77 | 50 | 0.0 | 2.0 | 0.00 | 0.00 | 0.00 | 86 | 1016.0 |
| 20260904080304 | 77 | 147 | 0.0 | 2.0 | 0.00 | 0.00 | 0.00 | 86 | 1015.9 |
| 20260904075800 | 77 | 157 | 0.0 | 2.0 | 0.00 | 0.00 | 0.00 | 87 | 1015.9 |
| 20260904075254 | 77 | 166 | 0.0 | 2.0 | 0.00 | 0.00 | 0.00 | 88 | 1015.9 |
| 20260904074753 | 77 | 141 | 0.0 | 1.0 | 0.00 | 0.00 | 0.00 | 88 | 1015.8 |
| 20260904074249 | 76 | 141 | 0.0 | 2.0 | 0.00 | 0.00 | 0.00 | 88 | 1015.9 |
| 20260904073744 | 76 | 157 | 0.0 | 2.0 | 0.00 | 0.00 | 0.00 | 88 | 1015.8 |
| 20260904073239 | 76 | 129 | 0.0 | 0.0 | 0.00 | 0.00 | 0.00 | 88 | 1015.8 |
| 20260904072736 | 77 | 142 | 0.0 | 1.0 | 0.00 | 0.00 | 0.00 | 88 | 1015.9 |
| 20260904072229 | 77 | 129 | 0.0 | 1.0 | 0.00 | 0.00 | 0.00 | 88 | 1015.8 |
| 20260904071726 | 77 | 129 | 0.0 | 0.0 | 0.00 | 0.00 | 0.00 | 87 | 1015.7 |
| 20260904071225 | 77 | 129 | 0.0 | 0.0 | 0.00 | 0.00 | 0.00 | 87 | 1015.9 |
| 20260904070720 | 77 | 134 | 0.0 | 1.0 | 0.00 | 0.00 | 0.00 | 87 | 1015.8 |
| 20260904070219 | 77 | 304 | 0.0 | 1.0 | 0.00 | 0.00 | 0.00 | 87 | 1015.7 |
| 20260904065714 | 77 | 7 | 0.0 | 1.0 | 0.00 | 0.00 | 0.00 | 88 | 1015.9 |
| 20260904065211 | 77 | 124 | 0.0 | 0.0 | 0.00 | 0.00 | 0.00 | 87 | 1015.9 |
| 20260904064711 | 77 | 124 | 0.0 | 0.0 | 0.00 | 0.00 | 0.00 | 87 | 1015.9 |
| 20260904064206 | 77 | 124 | 0.0 | 0.0 | 0.00 | 0.00 | 0.00 | 87 | 1015.9 |
| 20260904063702 | 77 | 124 | 0.0 | 0.0 | 0.00 | 0.00 | 0.00 | 87 | 1015.9 |
| 20260904063157 | 77 | 138 | 0.0 | 1.0 | 0.00 | 0.00 | 0.00 | 87 | 1015.9 |
| 20260904062654 | 77 | 137 | 0.0 | 1.0 | 0.00 | 0.00 | 0.00 | 86 | 1016.0 |
| 20260904062149 | 77 | 129 | 0.0 | 0.0 | 0.00 | 0.00 | 0.00 | 86 | 1016.0 |
| 20260904061644 | 77 | 129 | 0.0 | 0.0 | 0.00 | 0.00 | 0.00 | 86 | 1016.0 |
| 20260904061141 | 78 | 129 | 0.0 | 0.0 | 0.00 | 0.00 | 0.00 | 86 | 1015.9 |
| 20260904060637 | 78 | 154 | 0.0 | 0.0 | 0.00 | 0.00 | 0.00 | 86 | 1015.8 |
| 20260904060132 | 78 | 154 | 0.0 | 1.0 | 0.00 | 0.00 | 0.00 | 86 | 1016.0 |
| 20260904055627 | 78 | 37 | 0.0 | 0.0 | 0.00 | 0.00 | 0.00 | 86 | 1016.2 |
| 20260904055122 | 78 | 37 | 0.0 | 0.0 | 0.00 | 0.00 | 0.00 | 86 | 1016.0 |
| 20260904054618 | 78 | 37 | 0.0 | 0.0 | 0.00 | 0.00 | 0.00 | 86 | 1016.0 |
| 20260904054114 | 78 | 62 | 0.0 | 0.0 | 0.00 | 0.00 | 0.00 | 85 | 1016.2 |
| 20260904053608 | 78 | 62 | 0.0 | 1.0 | 0.00 | 0.00 | 0.00 | 85 | 1016.2 |
| 20260904053103 | 78 | 351 | 0.0 | 1.0 | 0.00 | 0.00 | 0.00 | 85 | 1016.2 |
| 20260904052600 | 78 | 3 | 1.0 | 1.0 | 0.00 | 0.00 | 0.00 | 85 | 1016.3 |
| 20260904052055 | 78 | 13 | 0.0 | 1.0 | 0.00 | 0.00 | 0.00 | 85 | 1016.3 |
| 20260904051552 | 78 | 144 | 0.0 | 2.0 | 0.00 | 0.00 | 0.00 | 85 | 1016.0 |
| 20260904051051 | 78 | 139 | 0.0 | 1.0 | 0.00 | 0.00 | 0.00 | 84 | 1016.1 |
| 20260904050547 | 78 | 142 | 0.0 | 1.0 | 0.00 | 0.00 | 0.00 | 84 | 1016.1 |
| 20260904050043 | 78 | 121 | 1.0 | 2.0 | 0.00 | 0.00 | 0.00 | 84 | 1016.2 |
| 20260904045538 | 78 | 142 | 0.0 | 1.0 | 0.00 | 0.00 | 0.00 | 84 | 1016.2 |
| 20260904045032 | 78 | 142 | 0.0 | 1.0 | 0.00 | 0.00 | 0.00 | 84 | 1016.2 |
| 20260904044528 | 79 | 140 | 1.0 | 2.0 | 0.00 | 0.00 | 0.00 | 84 | 1016.1 |
| 20260904044024 | 79 | 37 | 0.0 | 0.0 | 0.00 | 0.00 | 0.00 | 84 | 1016.2 |
| 20260904043520 | 79 | 37 | 0.0 | 1.0 | 0.00 | 0.00 | 0.00 | 84 | 1016.2 |
| 20260904043016 | 79 | 19 | 1.0 | 2.0 | 0.00 | 0.00 | 0.00 | 84 | 1016.1 |
| 20260904042512 | 79 | 50 | 0.0 | 1.0 | 0.00 | 0.00 | 0.00 | 84 | 1016.3 |
| 20260904042007 | 78 | 129 | 0.0 | 0.0 | 0.00 | 0.00 | 0.00 | 84 | 1016.1 |
| 20260904041502 | 78 | 129 | 0.0 | 1.0 | 0.00 | 0.00 | 0.00 | 84 | 1016.0 |
| 20260904040959 | 79 | 129 | 0.0 | 1.0 | 0.00 | 0.00 | 0.00 | 83 | 1016.2 |
| 20260904040453 | 79 | 117 | 0.0 | 2.0 | 0.00 | 0.00 | 0.00 | 83 | 1016.2 |
| 20260904035949 | 79 | 117 | 0.0 | 1.0 | 0.00 | 0.00 | 0.00 | 83 | 1016.3 |
| 20260904035445 | 79 | 127 | 0.0 | 1.0 | 0.00 | 0.00 | 0.00 | 82 | 1016.1 |
| 20260904034944 | 80 | 150 | 0.0 | 1.0 | 0.00 | 0.00 | 0.00 | 82 | 1016.1 |
| 20260904034439 | 80 | 129 | 0.0 | 1.0 | 0.00 | 0.00 | 0.00 | 81 | 1016.2 |
| 20260904033935 | 80 | 129 | 0.0 | 0.0 | 0.00 | 0.00 | 0.00 | 81 | 1016.3 |
| 20260904033432 | 80 | 129 | 0.0 | 0.0 | 0.00 | 0.00 | 0.00 | 81 | 1016.5 |
| 20260904032927 | 80 | 129 | 0.0 | 0.0 | 0.00 | 0.00 | 0.00 | 80 | 1016.5 |
| 20260904032423 | 80 | 129 | 0.0 | 0.0 | 0.00 | 0.00 | 0.00 | 80 | 1016.5 |
| 20260904031922 | 80 | 154 | 0.0 | 0.0 | 0.00 | 0.00 | 0.00 | 80 | 1016.4 |
| 20260904031417 | 80 | 154 | 0.0 | 0.0 | 0.00 | 0.00 | 0.00 | 80 | 1016.4 |
| 20260904030913 | 80 | 154 | 0.0 | 0.0 | 0.00 | 0.00 | 0.00 | 80 | 1016.4 |
| 20260904030408 | 80 | 154 | 0.0 | 0.0 | 0.00 | 0.00 | 0.00 | 80 | 1016.5 |
| 20260904025903 | 80 | 154 | 0.0 | 0.0 | 0.00 | 0.00 | 0.00 | 79 | 1016.5 |
| 20260904025359 | 80 | 154 | 0.0 | 0.0 | 0.00 | 0.00 | 0.00 | 79 | 1016.3 |
| 20260904024859 | 81 | 154 | 0.0 | 0.0 | 0.00 | 0.00 | 0.00 | 79 | 1016.5 |
| 20260904024354 | 81 | 135 | 0.0 | 0.0 | 0.00 | 0.00 | 0.00 | 78 | 1016.6 |
| 20260904023850 | 81 | 135 | 0.0 | 0.0 | 0.00 | 0.00 | 0.00 | 78 | 1016.6 |
| 20260904023346 | 81 | 129 | 0.0 | 0.0 | 0.00 | 0.00 | 0.00 | 77 | 1016.6 |
| 20260904022845 | 81 | 104 | 0.0 | 1.0 | 0.00 | 0.00 | 0.00 | 77 | 1016.5 |
| 20260904022342 | 81 | 75 | 0.0 | 0.0 | 0.00 | 0.00 | 0.00 | 77 | 1016.4 |
| 20260904021838 | 81 | 75 | 0.0 | 0.0 | 0.00 | 0.00 | 0.00 | 77 | 1016.5 |
| 20260904021333 | 82 | 117 | 0.0 | 1.0 | 0.00 | 0.00 | 0.00 | 77 | 1016.2 |
| 20260904020828 | 82 | 154 | 0.0 | 1.0 | 0.00 | 0.00 | 0.00 | 77 | 1016.3 |
| 20260904020324 | 82 | 154 | 0.0 | 0.0 | 0.00 | 0.00 | 0.00 | 77 | 1016.2 |
| 20260904015822 | 82 | 154 | 0.0 | 0.0 | 0.00 | 0.00 | 0.00 | 77 | 1016.3 |
| 20260904015318 | 82 | 154 | 0.0 | 2.0 | 0.00 | 0.00 | 0.00 | 77 | 1016.3 |
| 20260904014816 | 82 | 132 | 1.0 | 2.0 | 0.00 | 0.00 | 0.00 | 77 | 1016.1 |
| 20260904014311 | 82 | 117 | 0.0 | 0.0 | 0.00 | 0.00 | 0.00 | 75 | 1016.2 |
| 20260904013807 | 82 | 117 | 0.0 | 0.0 | 0.00 | 0.00 | 0.00 | 75 | 1016.1 |
| 20260904013303 | 83 | 117 | 0.0 | 0.0 | 0.00 | 0.00 | 0.00 | 75 | 1016.1 |
| 20260904012759 | 83 | 142 | 0.0 | 2.0 | 0.00 | 0.00 | 0.00 | 75 | 1015.9 |
| 20260904012253 | 83 | 142 | 0.0 | 1.0 | 0.00 | 0.00 | 0.00 | 74 | 1015.9 |
| 20260904011752 | 84 | 164 | 0.0 | 0.0 | 0.00 | 0.00 | 0.00 | 73 | 1015.9 |
| 20260904011248 | 84 | 164 | 0.0 | 0.0 | 0.00 | 0.00 | 0.00 | 73 | 1015.8 |
| 20260904010748 | 84 | 164 | 0.0 | 0.0 | 0.00 | 0.00 | 0.00 | 72 | 1015.8 |
| 20260904010244 | 84 | 164 | 0.0 | 0.0 | 0.00 | 0.00 | 0.00 | 72 | 1015.6 |
| 20260904005739 | 84 | 164 | 0.0 | 1.0 | 0.00 | 0.00 | 0.00 | 72 | 1015.5 |
| 20260904005235 | 84 | 9 | 1.0 | 2.0 | 0.00 | 0.00 | 0.00 | 71 | 1015.4 |
| 20260904004730 | 84 | 164 | 0.0 | 0.0 | 0.00 | 0.00 | 0.00 | 71 | 1015.4 |
| 20260904004226 | 85 | 164 | 0.0 | 2.0 | 0.00 | 0.00 | 0.00 | 70 | 1015.2 |
| 20260904003720 | 85 | 154 | 0.0 | 1.0 | 0.00 | 0.00 | 0.00 | 69 | 1015.5 |
| 20260904003217 | 85 | 29 | 0.0 | 0.0 | 0.00 | 0.00 | 0.00 | 69 | 1015.1 |
| 20260904002712 | 85 | 9 | 0.0 | 1.0 | 0.00 | 0.00 | 0.00 | 69 | 1015.4 |
| 20260904002208 | 85 | 25 | 0.0 | 0.0 | 0.00 | 0.00 | 0.00 | 69 | 1015.2 |
| 20260904001703 | 85 | 28 | 0.0 | 1.0 | 0.00 | 0.00 | 0.00 | 69 | 1015.3 |
| 20260904001201 | 86 | 89 | 0.0 | 1.0 | 0.00 | 0.00 | 0.00 | 68 | 1015.6 |
| 20260904000657 | 86 | 147 | 0.0 | 1.0 | 0.00 | 0.00 | 0.00 | 68 | 1015.4 |
| 20260904000152 | 86 | 139 | 0.0 | 1.0 | 0.00 | 0.00 | 0.00 | 67 | 1015.5 |
| 20260903235651 | 86 | 104 | 0.0 | 1.0 | 0.00 | 0.00 | 0.00 | 66 | 1015.5 |
| 20260903235148 | 87 | 75 | 0.0 | 1.0 | 0.00 | 0.00 | 0.00 | 66 | 1015.6 |
| 20260903234637 | 87 | 15 | 0.0 | 2.0 | 0.00 | 0.00 | 0.00 | 66 | 1015.5 |
| 20260903234133 | 87 | 117 | 0.0 | 2.0 | 0.00 | 0.00 | 0.00 | 65 | 1015.5 |
| 20260903233629 | 87 | 350 | 1.0 | 3.0 | 0.00 | 0.00 | 0.00 | 65 | 1015.5 |
| 20260903233125 | 87 | 0 | 0.0 | 3.0 | 0.00 | 0.00 | 0.00 | 65 | 1015.4 |
| 20260903232619 | 87 | 147 | 0.0 | 3.0 | 0.00 | 0.00 | 0.00 | 64 | 1015.5 |
| 20260903232115 | 87 | 242 | 0.0 | 1.0 | 0.00 | 0.00 | 0.00 | 64 | 1015.2 |
| 20260903231609 | 87 | 0 | 1.0 | 3.0 | 0.00 | 0.00 | 0.00 | 64 | 1015.5 |
| 20260903231109 | 87 | 256 | 2.0 | 3.0 | 0.00 | 0.00 | 0.00 | 64 | 1015.4 |
| 20260903230605 | 88 | 124 | 0.0 | 2.0 | 0.00 | 0.00 | 0.00 | 64 | 1015.4 |
| 20260903230103 | 88 | 168 | 0.0 | 7.0 | 0.00 | 0.00 | 0.00 | 63 | 1015.5 |
| 20260903225601 | 89 | 140 | 3.0 | 4.0 | 0.00 | 0.00 | 0.00 | 62 | 1015.5 |
| 20260903225057 | 89 | 274 | 0.0 | 2.0 | 0.00 | 0.00 | 0.00 | 62 | 1015.2 |
| 20260903224553 | 89 | 25 | 0.0 | 1.0 | 0.00 | 0.00 | 0.00 | 63 | 1015.3 |
| 20260903224049 | 88 | 89 | 0.0 | 3.0 | 0.00 | 0.00 | 0.00 | 63 | 1015.5 |
| 20260903223549 | 89 | 322 | 0.0 | 4.0 | 0.00 | 0.00 | 0.00 | 62 | 1015.4 |
| 20260903223047 | 89 | 138 | 5.0 | 8.0 | 0.00 | 0.00 | 0.00 | 61 | 1015.4 |
| 20260903222543 | 90 | 215 | 1.0 | 4.0 | 0.00 | 0.00 | 0.00 | 61 | 1015.3 |
| 20260903222041 | 91 | 188 | 4.0 | 9.0 | 0.00 | 0.00 | 0.00 | 60 | 1015.1 |
| 20260903221537 | 91 | 204 | 2.0 | 4.0 | 0.00 | 0.00 | 0.00 | 60 | 1014.9 |
| 20260903221034 | 91 | 319 | 4.0 | 5.0 | 0.00 | 0.00 | 0.00 | 60 | 1015.1 |
| 20260903220533 | 91 | 152 | 0.0 | 3.0 | 0.00 | 0.00 | 0.00 | 60 | 1014.9 |
| 20260903220028 | 91 | 313 | 2.0 | 5.0 | 0.00 | 0.00 | 0.00 | 59 | 1014.9 |
| 20260903215527 | 91 | 297 | 3.0 | 6.0 | 0.00 | 0.00 | 0.00 | 59 | 1014.9 |
| 20260903215027 | 90 | 347 | 3.0 | 4.0 | 0.00 | 0.00 | 0.00 | 59 | 1014.9 |
| 20260903214527 | 90 | 157 | 0.0 | 2.0 | 0.00 | 0.00 | 0.00 | 59 | 1014.8 |
| 20260903214022 | 90 | 158 | 2.0 | 3.0 | 0.00 | 0.00 | 0.00 | 59 | 1015.0 |
| 20260903213517 | 91 | 175 | 1.0 | 5.0 | 0.00 | 0.00 | 0.00 | 58 | 1015.0 |
| 20260903213013 | 91 | 158 | 5.0 | 6.0 | 0.00 | 0.00 | 0.00 | 58 | 1014.9 |
| 20260903212508 | 91 | 22 | 0.0 | 5.0 | 0.00 | 0.00 | 0.00 | 56 | 1015.0 |
| 20260903212003 | 92 | 142 | 2.0 | 3.0 | 0.00 | 0.00 | 0.00 | 55 | 1014.9 |
| 20260903211458 | 92 | 293 | 5.0 | 6.0 | 0.00 | 0.00 | 0.00 | 53 | 1015.0 |
| 20260903210955 | 92 | 171 | 1.0 | 3.0 | 0.00 | 0.00 | 0.00 | 53 | 1014.9 |
| 20260903210454 | 93 | 152 | 0.0 | 5.0 | 0.00 | 0.00 | 0.00 | 52 | 1014.9 |
| 20260903205950 | 93 | 163 | 2.0 | 3.0 | 0.00 | 0.00 | 0.00 | 51 | 1014.9 |
| 20260903205444 | 93 | 123 | 2.0 | 6.0 | 0.00 | 0.00 | 0.00 | 50 | 1014.9 |
| 20260903204939 | 94 | 178 | 3.0 | 6.0 | 0.00 | 0.00 | 0.00 | 49 | 1014.9 |
| 20260903204435 | 94 | 168 | 0.0 | 5.0 | 0.00 | 0.00 | 0.00 | 48 | 1015.1 |
| 20260903203931 | 94 | 147 | 1.0 | 4.0 | 0.00 | 0.00 | 0.00 | 47 | 1015.1 |
| 20260903203426 | 95 | 141 | 3.0 | 4.0 | 0.00 | 0.00 | 0.00 | 47 | 1015.0 |
| 20260903202925 | 95 | 130 | 4.0 | 7.0 | 0.00 | 0.00 | 0.00 | 47 | 1015.3 |
| 20260903202422 | 95 | 181 | 1.0 | 6.0 | 0.00 | 0.00 | 0.00 | 47 | 1015.3 |
| 20260903201921 | 95 | 141 | 2.0 | 6.0 | 0.00 | 0.00 | 0.00 | 47 | 1015.4 |
| 20260903201417 | 95 | 137 | 3.0 | 6.0 | 0.00 | 0.00 | 0.00 | 48 | 1015.1 |
| 20260903200915 | 95 | 160 | 2.0 | 5.0 | 0.00 | 0.00 | 0.00 | 48 | 1015.3 |
| 20260903200411 | 94 | 141 | 4.0 | 6.0 | 0.00 | 0.00 | 0.00 | 49 | 1015.5 |
| 20260903195906 | 94 | 188 | 4.0 | 7.0 | 0.00 | 0.00 | 0.00 | 49 | 1015.6 |
| 20260903195402 | 94 | 126 | 7.0 | 10.0 | 0.00 | 0.00 | 0.00 | 50 | 1015.8 |
| 20260903194856 | 94 | 137 | 2.0 | 6.0 | 0.00 | 0.00 | 0.00 | 50 | 1015.7 |
| 20260903194352 | 94 | 149 | 2.0 | 7.0 | 0.00 | 0.00 | 0.00 | 49 | 1015.7 |
| 20260903193847 | 95 | 148 | 4.0 | 9.0 | 0.00 | 0.00 | 0.00 | 48 | 1015.8 |
| 20260903193344 | 95 | 178 | 3.0 | 8.0 | 0.00 | 0.00 | 0.00 | 47 | 1015.7 |
| 20260903192838 | 95 | 146 | 3.0 | 7.0 | 0.00 | 0.00 | 0.00 | 46 | 1015.9 |
| 20260903192334 | 96 | 158 | 0.0 | 4.0 | 0.00 | 0.00 | 0.00 | 47 | 1016.1 |
| 20260903191831 | 96 | 22 | 0.0 | 5.0 | 0.00 | 0.00 | 0.00 | 46 | 1016.1 |
| 20260903191326 | 96 | 140 | 1.0 | 5.0 | 0.00 | 0.00 | 0.00 | 46 | 1016.0 |
| 20260903190825 | 97 | 35 | 2.0 | 8.0 | 0.00 | 0.00 | 0.00 | 44 | 1016.2 |
| 20260903190320 | 97 | 171 | 2.0 | 9.0 | 0.00 | 0.00 | 0.00 | 44 | 1016.0 |
| 20260903185820 | 97 | 143 | 1.0 | 9.0 | 0.00 | 0.00 | 0.00 | 43 | 1016.0 |
| 20260903185315 | 98 | 65 | 3.0 | 7.0 | 0.00 | 0.00 | 0.00 | 43 | 1016.0 |
| 20260903184811 | 97 | 287 | 1.0 | 7.0 | 0.00 | 0.00 | 0.00 | 44 | 1016.2 |
| 20260903184308 | 98 | 222 | 3.0 | 6.0 | 0.00 | 0.00 | 0.00 | 45 | 1016.2 |
| 20260903183802 | 97 | 124 | 0.0 | 3.0 | 0.00 | 0.00 | 0.00 | 44 | 1016.0 |
| 20260903183256 | 97 | 216 | 2.0 | 5.0 | 0.00 | 0.00 | 0.00 | 44 | 1016.3 |
| 20260903182755 | 97 | 213 | 5.0 | 7.0 | 0.00 | 0.00 | 0.00 | 44 | 1016.4 |
| 20260903182250 | 97 | 56 | 1.0 | 7.0 | 0.00 | 0.00 | 0.00 | 45 | 1016.4 |